Location: Gro�sch�nbrunn
(49.5760°N, 11.8868°E)
Time: 03:15:06
(UTC+00:00)

MetOp-B - Pass Details

Date: 18 September 2020
Orbit: 819 x 821 km, 98.7° (Epoch: 19 October)

Event Time Altitude Azimuth Distance (km) Brightness Sun altitude
Exits shadow 19:41:02 53° 122° (ESE) 1,001 4.2 -22.7°
Maximum altitude 19:42:04 65° 71° (ENE) 900 4.1 -22.8°
Drops below altitude 10° 19:47:23 10° 350° (N) 2,428 7.1 -23.6°
Sets 19:49:45 0° 348° (NNW) 3,364 8.0 -23.9°
